This is the latest recevied weather packets stored in our database for station/object HB9FHL-13. If no packets are shown the sender has not sent any weather packets the latest 10 day(s).
| Time | Temp. | Humidity | Pressure | Rain* | Wind** | Luminosity | Snow |
|---|---|---|---|---|---|---|---|
| 1787867260 | 27.78° C | - | 1013.2 hPa | 0 mm | - | - | - |
| 1787866958 | 27.78° C | - | 1012.5 hPa | 0 mm | - | - | - |
| 1787866657 | 28.33° C | - | 1011.6 hPa | 0 mm | - | - | - |
| 1787866357 | 27.22° C | - | 1024.3 hPa | 0 mm | - | - | - |
| 1787866056 | 27.78° C | - | 1013 hPa | 0 mm | - | - | - |
| 1787865756 | 28.33° C | - | 1016.9 hPa | 0 mm | - | - | - |
| 1787865455 | 27.78° C | - | 1009.3 hPa | 0 mm | - | - | - |
| 1787865155 | 27.78° C | - | 1011.7 hPa | 0 mm | - | - | - |
| 1787864854 | 28.33° C | - | 1013.5 hPa | 0 mm | - | - | - |
| 1787864554 | 27.78° C | - | 1008.1 hPa | 0 mm | - | - | - |
| 1787864253 | 26.67° C | - | 1015.8 hPa | 0 mm | - | - | - |
| 1787864000 | 25.56° C | - | 1010.4 hPa | 0 mm | - | - | - |
| 1787863953 | 25.56° C | - | 1010.4 hPa | 0 mm | - | - | - |
| 1787863652 | 25.56° C | - | 1014.3 hPa | 0 mm | - | - | - |
| 1787863352 | 25.56° C | - | 1011.7 hPa | 0 mm | - | - | - |
| 1787863050 | 26.67° C | - | 1010.3 hPa | 0 mm | - | - | - |
| 1787862750 | 25.56° C | - | 1013.2 hPa | 0 mm | - | - | - |
| 1787862449 | 25.56° C | - | 1013.8 hPa | 0 mm | - | - | - |
| 1787862149 | 26.11° C | - | 1012.7 hPa | 0 mm | - | - | - |
| 1787861849 | 26.67° C | - | 1015.2 hPa | 0 mm | - | - | - |
| 1787861546 | 26.11° C | - | 1014.7 hPa | 0 mm | - | - | - |
| 1787861246 | 25.56° C | - | 1013 hPa | 0 mm | - | - | - |
| 1787860945 | 25.56° C | - | 1012 hPa | 0 mm | - | - | - |
| 1787860645 | 26.11° C | - | 1015 hPa | 0 mm | - | - | - |
| 1787860344 | 26.11° C | - | 1013.3 hPa | 0 mm | - | - | - |
* Rain since midnight (hover to see other rain measurements)
** Current wind speed in m/s (hover to see current wind gust speed)